TimeCST,TemperatureF,Dew PointF,Humidity,Sea Level PressureIn,VisibilityMPH,Wind Direction,Wind SpeedMPH,Gust SpeedMPH,PrecipitationIn,Events,Conditions,WindDirDegrees,DateUTC
12:52 AM,21.0,9.0,60,30.09,10.0,South,6.9,-,N/A,,Clear,180,2014-01-18 06:52:00
1:52 AM,24.1,10.0,55,30.05,10.0,South,8.1,-,N/A,,Overcast,180,2014-01-18 07:52:00
2:52 AM,27.0,12.0,53,30.03,10.0,South,11.5,-,N/A,,Overcast,180,2014-01-18 08:52:00
3:52 AM,28.9,12.9,51,29.99,10.0,South,9.2,-,N/A,,Overcast,170,2014-01-18 09:52:00
4:52 AM,28.0,14.0,56,29.94,10.0,South,15.0,-,N/A,,Partly Cloudy,180,2014-01-18 10:52:00
5:52 AM,28.0,14.0,56,29.91,10.0,South,16.1,-,N/A,,Mostly Cloudy,180,2014-01-18 11:52:00
6:52 AM,30.0,15.1,54,29.87,10.0,South,13.8,-,N/A,,Scattered Clouds,180,2014-01-18 12:52:00
7:52 AM,36.0,17.1,46,29.83,10.0,SSW,19.6,-,N/A,,Overcast,210,2014-01-18 13:52:00
8:52 AM,39.9,17.1,40,29.84,10.0,WSW,19.6,27.6,N/A,,Clear,240,2014-01-18 14:52:00
9:52 AM,44.1,18.0,35,29.83,10.0,WSW,24.2,29.9,N/A,,Clear,250,2014-01-18 15:52:00
10:52 AM,46.0,19.9,35,29.83,10.0,West,24.2,29.9,N/A,,Clear,260,2014-01-18 16:52:00
11:52 AM,48.0,23.0,37,29.82,10.0,WNW,20.7,26.5,N/A,,Clear,290,2014-01-18 17:52:00
12:52 PM,48.9,24.1,38,29.81,10.0,WNW,13.8,24.2,N/A,,Mostly Cloudy,300,2014-01-18 18:52:00
1:52 PM,50.0,24.1,36,29.80,10.0,WNW,18.4,31.1,N/A,,Scattered Clouds,290,2014-01-18 19:52:00
2:52 PM,48.9,21.9,35,29.83,10.0,WNW,16.1,34.5,N/A,,Overcast,300,2014-01-18 20:52:00
3:52 PM,48.0,24.1,39,29.88,10.0,WNW,17.3,33.4,N/A,,Overcast,300,2014-01-18 21:52:00
4:52 PM,46.9,23.0,39,29.89,10.0,WNW,16.1,27.6,N/A,,Overcast,290,2014-01-18 22:52:00
5:52 PM,46.0,21.9,39,29.92,10.0,WNW,16.1,33.4,N/A,,Overcast,290,2014-01-18 23:52:00
6:52 PM,45.0,23.0,42,29.94,10.0,WNW,17.3,34.5,N/A,,Overcast,290,2014-01-19 00:52:00
7:52 PM,42.1,23.0,47,29.96,10.0,NW,16.1,24.2,N/A,,Mostly Cloudy,310,2014-01-19 01:52:00
8:52 PM,36.0,21.9,57,30.01,10.0,NW,23.0,27.6,N/A,,Clear,320,2014-01-19 02:52:00
9:52 PM,30.9,19.0,61,30.04,10.0,NNW,16.1,-,N/A,,Clear,330,2014-01-19 03:52:00
10:52 PM,28.9,19.0,67,30.08,10.0,NW,15.0,-,N/A,,Partly Cloudy,320,2014-01-19 04:52:00
11:05 PM,28.9,19.0,67,30.07,10.0,NW,16.1,20.7,N/A,,Mostly Cloudy,320,2014-01-19 05:05:00
11:30 PM,27.0,18.0,69,30.08,10.0,NNW,17.3,-,N/A,,Scattered Clouds,340,2014-01-19 05:30:00
11:52 PM,26.1,18.0,71,30.10,10.0,NW,16.1,-,N/A,,Clear,320,2014-01-19 05:52:00